Preview of NWS' New Version of Forecast
This preview is not operational and should not be used for support decisions.

Regional Weather Roundup (RWR)

Issued by National Weather Service (NWS)

                            
000
ASUS43 KLSX 181307
RWRMO 

WEATHER SUMMARY FOR MISSOURI
NATIONAL WEATHER SERVICE SPRINGFIELD MO
800 AM CDT MON MAR 18 2019

NOTE: "FAIR" INDICATES FEW OR NO CLOUDS BELOW 12,000 FEET WITH NO
       SIGNIFICANT WEATHER AND/OR OBSTRUCTIONS TO VISIBILITY.
       CURRENT SKY AND/OR WEATHER CONDITIONS ARE NOT AVAILABLE FOR
       CHILLICOTHE AND FARMINGTON.

MOZ001>031-035>038-043-044-053-054-181400-
...NORTHERN AND WESTERN MISSOURI...
  
CITY           SKY/WX    TMP DP  RH WIND       PRES   REMARKS
KANSAS CTY INT MOCLDY    35  28  75 NE5       30.43R                  
KANSAS C DTWN  CLOUDY    39  27  62 NE3       30.44R                  
LEE'S SUMMIT   CLOUDY    37  30  75 NE7       30.42R                  
ST JOSEPH      CLEAR     28  24  85 CALM      30.46R                  
CHILLICOTHE      N/A     27  24  89 CALM      30.45R                  
KIRKSVILLE     CLEAR     24  23  96 NW3       30.42R                  
     
$$
MOZ066>068-077>081-088>096-101>105-181400-
...SOUTHWEST MISSOURI...
  
CITY           SKY/WX    TMP DP  RH WIND       PRES   REMARKS
SPRINGFIELD    CLOUDY    35  26  69 CALM      30.38R                  
JOPLIN         CLEAR     37  27  67 NE6       30.39R                  
BRANSON        MOCLDY    41  23  48 E6        30.38R                  
               
$$
MOZ032>034-039>042-045>050-055>058-069>072-181400-
...CENTRAL MISSOURI...  
  
CITY           SKY/WX    TMP DP  RH WIND       PRES   REMARKS
COLUMBIA       PTCLDY    31  25  78 N6        30.41R WCI  25          
JEFFERSON CITY PTCLDY    33  27  78 W3        30.43R                  
ROLLA          CLOUDY    35  26  69 CALM      30.39R                  
SEDALIA        CLOUDY    36  30  79 NE6       30.43R                  
WHITEMAN AFB   PTCLDY    38  28  67 NE6       30.41F                  
WARRENSBURG    MOCLDY    36  30  80 N6        30.43R                  
OSAGE BEACH    CLOUDY    38  29  70 CALM      30.42R                  
               
$$
MOZ051-052-059>065-181400-
...EAST CENTRAL MISSOURI...
  
CITY           SKY/WX    TMP DP  RH WIND       PRES   REMARKS
ST LOUIS INTL  PTCLDY    34  26  72 N6        30.42R WCI  29          
SPIRIT OF STL  CLEAR     30  28  92 CALM      30.41R                  
ST CHARLES     CLEAR     34  28  79 NE7       30.43R WCI  28          
                   
$$
MOZ072>076-082>087-097>100-106>115-181400-
...SOUTH CENTRAL AND SOUTHEAST MISSOURI...
  
CITY           SKY/WX    TMP DP  RH WIND       PRES   REMARKS
CAPE GIRARDEAU PTSUNNY   37  32  82 NW3       30.41R                  
FARMINGTON     PTCLDY    34  30  85 CALM      30.40R                  
POPLAR BLUFF   CLOUDY    41  35  79 CALM      30.40R                  
WEST PLAINS    CLOUDY    40  26  57 CALM      30.38R                  
                                       
$$